Tracking 35331 objects as of 16-Sep-2026
HD Live streaming from Space Station
objects crossing your sky now

STARLINK-3749

Track STARLINK-3749 now!
10-day predictions
STARLINK-3749 is classified as:


NORAD ID: 52313
Int'l Code: 2022-041BE
Launch date: April 21, 2022
Source: United States (US)
Launch site: AIR FORCE EASTERN TEST RANGE (AFETR)
Your satellite tracking list
Your tracking list is empty




NASA's NSSDC Master Catalog

Two Line Element Set (TLE):
1 52313U 22041BE  26259.09022766  .00000928  00000-0  39532-4 0  9994
2 52313  53.1593 302.4396 0001044  85.0340 275.0782 15.33551954244774
Source of the keplerian elements: AFSPC